BREEZE-M DEB (TANK) - Orbit

View from above orbital plane
View from above orbital plane
View from above satellite
View from above satellite

Ground track
Ground track

The orbit data is extracted from the following two-line orbital elements,

1 35875U 09050C   13136.49010667  .00003395  00000-0  89479-3 0  4691
2 35875 049.3898 316.7459 6062632 237.5776 122.6176 03.93629446 52163
Epoch (UTC): 16 May 2013 11:45:45
Eccentricity: 0.6062632
inclination: 49.3898°
perigee height: 293 km
apogee height: 20838 km
right ascension of ascending node: 316.7459°
argument of perigee: 237.5776°
revolutions per day: 3.93629446
mean anomaly at epoch: 122.6176°
orbit number at epoch: 5216

The dashed part of the orbit path shows where the satellite is in the earth's shadow,  

Developed and maintained by Chris Peat, Heavens-Above GmbH. Please read the updated FAQ before sending e-mail. Imprint. DLR